| time (UTC) | temp F | wind direction | speed MPH | gust MPH | rain 1hr in | rain 24hr in | rain mn in | humidity % | barometer mb |
| 20260510054535 | 56 | 137 | 0.0 | 0.0 | 0.03 | 0.26 | 0.23 | 94 | 1010.1 |
| 20260510053037 | 56 | 137 | 0.0 | 0.0 | 0.03 | 0.26 | 0.23 | 94 | 1010.1 |
| 20260510051537 | 55 | 137 | 0.0 | 0.0 | 0.03 | 0.25 | 0.22 | 94 | 1010.1 |
| 20260510050031 | 55 | 137 | 0.0 | 3.0 | 0.02 | 0.24 | 0.21 | 94 | 1010.0 |
| 20260510044541 | 55 | 138 | 0.0 | 3.0 | 0.01 | 0.23 | 0.20 | 94 | 1009.9 |
| 20260510043028 | 55 | 140 | 1.0 | 3.0 | 0.01 | 0.23 | 0.20 | 94 | 1010.0 |
| 20260510041527 | 56 | 143 | 0.0 | 1.0 | 0.00 | 0.22 | 0.19 | 94 | 1010.2 |
| 20260510040030 | 56 | 143 | 0.0 | 1.0 | 0.00 | 0.22 | 0.19 | 94 | 1010.1 |
| 20260510034533 | 56 | 143 | 0.0 | 1.0 | 0.01 | 0.22 | 0.19 | 93 | 1010.2 |
| 20260510033022 | 56 | 143 | 0.0 | 0.0 | 0.01 | 0.22 | 0.19 | 93 | 1010.5 |
| 20260510031521 | 56 | 143 | 0.0 | 0.0 | 0.04 | 0.22 | 0.19 | 93 | 1010.6 |
| 20260510030019 | 56 | 143 | 0.0 | 0.0 | 0.04 | 0.22 | 0.19 | 93 | 1010.8 |
| 20260510024517 | 56 | 143 | 0.0 | 0.0 | 0.03 | 0.21 | 0.18 | 93 | 1011.0 |
| 20260510023016 | 56 | 143 | 0.0 | 0.0 | 0.04 | 0.21 | 0.18 | 93 | 1011.1 |
| 20260510021523 | 56 | 143 | 0.0 | 0.0 | 0.01 | 0.18 | 0.15 | 93 | 1011.4 |
| 20260510020013 | 56 | 143 | 0.0 | 0.0 | 0.01 | 0.18 | 0.15 | 93 | 1011.4 |
| 20260510014512 | 56 | 143 | 0.0 | 0.0 | 0.02 | 0.18 | 0.15 | 92 | 1011.4 |
| 20260510013011 | 56 | 143 | 0.0 | 0.0 | 0.01 | 0.17 | 0.14 | 92 | 1011.3 |
| 20260510011510 | 56 | 143 | 0.0 | 0.0 | 0.01 | 0.17 | 0.14 | 92 | 1011.4 |
| 20260510010009 | 56 | 143 | 0.0 | 0.0 | 0.02 | 0.17 | 0.14 | 92 | 1011.5 |
| 20260510004508 | 56 | 143 | 0.0 | 2.0 | 0.01 | 0.16 | 0.13 | 92 | 1011.6 |
| 20260510003007 | 57 | 143 | 0.0 | 2.0 | 0.03 | 0.16 | 0.13 | 91 | 1011.5 |
| 20260510001506 | 57 | 143 | 0.0 | 2.0 | 0.07 | 0.16 | 0.13 | 91 | 1011.5 |
| 20260510000009 | 57 | 143 | 0.0 | 0.0 | 0.08 | 0.15 | 0.12 | 90 | 1011.4 |
| 20260509234504 | 57 | 143 | 0.0 | 0.0 | 0.10 | 0.15 | 0.12 | 90 | 1011.4 |
| 20260509233001 | 57 | 143 | 0.0 | 0.0 | 0.08 | 0.13 | 0.10 | 89 | 1011.7 |
| 20260509231559 | 57 | 143 | 0.0 | 2.0 | 0.05 | 0.09 | 0.06 | 88 | 1011.8 |
| 20260509230057 | 58 | 143 | 0.0 | 0.0 | 0.04 | 0.07 | 0.04 | 88 | 1012.0 |
| 20260509224600 | 58 | 143 | 0.0 | 0.0 | 0.03 | 0.05 | 0.02 | 87 | 1012.4 |
| 20260509223051 | 59 | 143 | 0.0 | 2.0 | 0.04 | 0.05 | 0.02 | 86 | 1012.3 |
| 20260509221602 | 59 | 143 | 0.0 | 1.0 | 0.04 | 0.04 | 0.01 | 84 | 1012.2 |
| 20260509220045 | 60 | 143 | 0.0 | 3.0 | 0.03 | 0.03 | 0.00 | 82 | 1012.1 |
| 20260509214544 | 61 | 144 | 1.0 | 3.0 | 0.02 | 0.02 | 0.02 | 78 | 1012.2 |
| 20260509213044 | 62 | 146 | 2.0 | 7.0 | 0.01 | 0.01 | 0.01 | 74 | 1012.3 |
| 20260509211546 | 63 | 126 | 4.0 | 7.0 | 0.00 | 0.00 | 0.00 | 68 | 1011.9 |
| 20260509210046 | 64 | 130 | 2.0 | 4.0 | 0.00 | 0.00 | 0.00 | 65 | 1012.0 |
| 20260509204546 | 64 | 134 | 2.0 | 8.0 | 0.00 | 0.00 | 0.00 | 62 | 1012.0 |
| 20260509203042 | 64 | 100 | 1.0 | 6.0 | 0.00 | 0.00 | 0.00 | 61 | 1012.0 |
| 20260509201549 | 64 | 100 | 1.0 | 4.0 | 0.00 | 0.00 | 0.00 | 61 | 1011.9 |
| 20260509200051 | 64 | 117 | 0.0 | 7.0 | 0.00 | 0.00 | 0.00 | 61 | 1011.8 |
| 20260509194541 | 64 | 121 | 0.0 | 1.0 | 0.00 | 0.00 | 0.00 | 61 | 1011.9 |
| 20260509193042 | 64 | 121 | 1.0 | 6.0 | 0.00 | 0.00 | 0.00 | 60 | 1011.8 |
| 20260509191540 | 65 | 119 | 0.0 | 0.0 | 0.00 | 0.00 | 0.00 | 60 | 1011.7 |
| 20260509190045 | 65 | 119 | 0.0 | 0.0 | 0.00 | 0.00 | 0.00 | 58 | 1011.7 |
| 20260509184538 | 66 | 119 | 0.0 | 2.0 | 0.00 | 0.00 | 0.00 | 56 | 1011.6 |
| 20260509183040 | 67 | 120 | 0.0 | 2.0 | 0.00 | 0.00 | 0.00 | 55 | 1011.4 |
| 20260509181540 | 67 | 119 | 0.0 | 3.0 | 0.00 | 0.00 | 0.00 | 54 | 1011.2 |
| 20260509180038 | 68 | 119 | 0.0 | 4.0 | 0.00 | 0.00 | 0.00 | 53 | 1011.1 |
| 20260509174537 | 69 | 118 | 2.0 | 6.0 | 0.00 | 0.00 | 0.00 | 51 | 1011.1 |
| 20260509173035 | 69 | 116 | 3.0 | 7.0 | 0.00 | 0.00 | 0.00 | 49 | 1011.2 |
| 20260509171538 | 69 | 117 | 2.0 | 10.0 | 0.00 | 0.00 | 0.00 | 47 | 1011.1 |
| 20260509170033 | 70 | 115 | 2.0 | 8.0 | 0.00 | 0.00 | 0.00 | 46 | 1011.3 |
| 20260509164534 | 70 | 92 | 2.0 | 8.0 | 0.00 | 0.00 | 0.00 | 44 | 1011.4 |
| 20260509163031 | 70 | 124 | 3.0 | 10.0 | 0.00 | 0.00 | 0.00 | 42 | 1011.4 |
| 20260509161530 | 70 | 69 | 2.0 | 7.0 | 0.00 | 0.00 | 0.00 | 39 | 1011.5 |
| 20260509160029 | 70 | 56 | 2.0 | 7.0 | 0.00 | 0.00 | 0.00 | 40 | 1011.6 |
| 20260509154527 | 71 | 58 | 1.0 | 9.0 | 0.00 | 0.00 | 0.00 | 39 | 1011.8 |
| 20260509153025 | 72 | 70 | 3.0 | 9.0 | 0.00 | 0.00 | 0.00 | 38 | 1011.9 |
| 20260509151524 | 73 | 111 | 4.0 | 9.0 | 0.00 | 0.00 | 0.00 | 35 | 1011.9 |
| 20260509150032 | 74 | 161 | 1.0 | 9.0 | 0.00 | 0.00 | 0.00 | 35 | 1012.1 |
| 20260509144530 | 74 | 88 | 1.0 | 10.0 | 0.00 | 0.00 | 0.00 | 35 | 1012.3 |
| 20260509143019 | 73 | 160 | 3.0 | 11.0 | 0.00 | 0.00 | 0.00 | 34 | 1012.5 |
| 20260509141522 | 73 | 111 | 4.0 | 10.0 | 0.00 | 0.00 | 0.00 | 39 | 1012.6 |
| 20260509140016 | 73 | 51 | 1.0 | 11.0 | 0.00 | 0.00 | 0.00 | 40 | 1012.5 |
| 20260509134513 | 74 | 54 | 3.0 | 11.0 | 0.00 | 0.00 | 0.00 | 39 | 1012.8 |
| 20260509133011 | 74 | 85 | 1.0 | 10.0 | 0.00 | 0.00 | 0.00 | 42 | 1013.0 |
| 20260509131509 | 74 | 28 | 3.0 | 11.0 | 0.00 | 0.00 | 0.00 | 39 | 1013.1 |
| 20260509130013 | 75 | 72 | 3.0 | 10.0 | 0.00 | 0.00 | 0.00 | 40 | 1013.3 |
| 20260509124509 | 76 | 69 | 1.0 | 8.0 | 0.00 | 0.00 | 0.00 | 39 | 1013.3 |
| 20260509123006 | 76 | 32 | 3.0 | 10.0 | 0.00 | 0.00 | 0.00 | 37 | 1013.3 |
| 20260509121509 | 76 | 176 | 3.0 | 10.0 | 0.00 | 0.00 | 0.00 | 39 | 1013.3 |
| 20260509120001 | 76 | 144 | 3.0 | 9.0 | 0.00 | 0.00 | 0.00 | 38 | 1013.5 |
| 20260509114559 | 75 | 149 | 3.0 | 9.0 | 0.00 | 0.00 | 0.00 | 38 | 1013.6 |
| 20260509113058 | 74 | 126 | 4.0 | 11.0 | 0.00 | 0.00 | 0.00 | 38 | 1013.7 |
| 20260509111554 | 74 | 142 | 5.0 | 12.0 | 0.00 | 0.00 | 0.00 | 38 | 1013.8 |
| 20260509110051 | 75 | 73 | 4.0 | 14.0 | 0.00 | 0.00 | 0.00 | 37 | 1014.1 |
| 20260509104549 | 74 | 117 | 2.0 | 8.0 | 0.00 | 0.00 | 0.00 | 37 | 1014.1 |
| 20260509103052 | 74 | 159 | 1.0 | 8.0 | 0.00 | 0.00 | 0.00 | 39 | 1014.3 |
| 20260509101551 | 73 | 90 | 3.0 | 9.0 | 0.00 | 0.00 | 0.00 | 36 | 1014.5 |
| 20260509100042 | 73 | 169 | 3.0 | 8.0 | 0.00 | 0.00 | 0.00 | 39 | 1014.6 |
| 20260509094539 | 72 | 151 | 1.0 | 4.0 | 0.00 | 0.00 | 0.00 | 44 | 1014.5 |
| 20260509093035 | 71 | 112 | 2.0 | 9.0 | 0.00 | 0.00 | 0.00 | 42 | 1014.6 |
| 20260509091531 | 70 | 71 | 1.0 | 5.0 | 0.00 | 0.00 | 0.00 | 46 | 1014.8 |
| 20260509090028 | 69 | 66 | 1.0 | 4.0 | 0.00 | 0.00 | 0.00 | 49 | 1015.1 |
| 20260509084526 | 69 | 74 | 1.0 | 4.0 | 0.00 | 0.00 | 0.00 | 50 | 1015.1 |
| 20260509083021 | 69 | 109 | 2.0 | 3.0 | 0.00 | 0.00 | 0.00 | 50 | 1015.4 |
| 20260509081520 | 68 | 107 | 3.0 | 4.0 | 0.00 | 0.00 | 0.00 | 49 | 1015.5 |
| 20260509080016 | 67 | 111 | 2.0 | 4.0 | 0.00 | 0.00 | 0.00 | 50 | 1015.5 |
| 20260509074512 | 66 | 109 | 2.0 | 7.0 | 0.00 | 0.00 | 0.00 | 52 | 1015.6 |
| 20260509073010 | 64 | 94 | 1.0 | 3.0 | 0.00 | 0.00 | 0.00 | 59 | 1015.7 |
| 20260509071504 | 61 | 128 | 1.0 | 3.0 | 0.00 | 0.00 | 0.00 | 71 | 1015.5 |
| 20260509070100 | 58 | 250 | 0.0 | 3.0 | 0.00 | 0.00 | 0.00 | 86 | 1015.7 |
| 20260509064610 | 55 | 251 | 0.0 | 3.0 | 0.00 | 0.00 | 0.00 | 91 | 1015.8 |
| 20260509063050 | 52 | 250 | 0.0 | 0.0 | 0.00 | 0.00 | 0.00 | 93 | 1015.9 |
| 20260509061549 | 50 | 250 | 0.0 | 0.0 | 0.00 | 0.00 | 0.00 | 93 | 1016.0 |
| 20260509060047 | 48 | 250 | 0.0 | 0.0 | 0.00 | 0.00 | 0.00 | 93 | 1015.9 |